7 * 24
多渠道服务支持
STARLINK-34144是美国于2025年5月13日发射的星链卫星,隶属于SpaceX打造的星链星座网络。星链项目旨在构建全球卫星互联网,为全球偏远地区、高速网络未覆盖区域提供低延迟、高速率的网络接入服务,该卫星的入轨进一步扩充了星链星座的服务覆盖能力与运行规模。
美国
(US)
| 数据来源 | 国际轨道数据 |
| 星历时间: | 2026-09-04T09:23:34+0800 8小时前 查看轨道信息 |
| 半长轴: | 6861.124km |
| 偏心率: | 0.0000981 |
| 轨道倾角: | 43.002° |
| 近地点辐角 | 184.838° |
| 升交点赤经 | 249.044° |
| 平近点角 | 175.247° |
| 近地点: | 482.313km |
| 远地点: | 483.661km |
| 周期: | 94.265分钟 |
| 每日圈数: | 15.276009 |
| 事件ID | 空间交会对象 | 最接近时刻(TCA) | 交会距离 | 交会风险概率(CRP) | 交会风险指数(CRI) | 操作 |
|---|---|---|---|---|---|---|
| CDM_260902-222906-395806-642821 |
STARLINK-34144
(63958)
STARLINK-35610
(66428) | 2026-09-02T 22:29:54+0000 |
1.170 km
极远距离 | 1.00726E-5 中风险 | 0.55 | |
| CDM_260903-000406-395806-642821 |
STARLINK-34144
(63958)
STARLINK-35610
(66428) | 2026-09-03T 00:04:03+0000 |
1.227 km
极远距离 | 8.535387E-6 低风险 | 0.54 | |
| CDM_260902-205506-395806-642821 |
STARLINK-34144
(63958)
STARLINK-35610
(66428) | 2026-09-02T 20:55:45+0000 |
1.768 km
极远距离 | 2.659391E-6 低风险 | 0.43 | |
| CDM_260903-013806-395806-642821 |
STARLINK-34144
(63958)
STARLINK-35610
(66428) | 2026-09-03T 01:38:13+0000 |
1.866 km
极远距离 | 2.29669E-6 低风险 | 0.42 | |
| CDM_260904-173906-395806-642821 |
STARLINK-34144
(63958)
STARLINK-35610
(66428) | 2026-09-04T 17:39:08+0000 |
1.866 km
极远距离 | 2.296602E-6 低风险 | 0.42 | |
| CDM_260904-160406-395806-642821 |
STARLINK-34144
(63958)
STARLINK-35610
(66428) | 2026-09-04T 16:04:59+0000 |
2.506 km
极远距离 | 1.204907E-6 低风险 | 0.37 | |
| CDM_260904-045606-395806-794621 |
STARLINK-34144
(63958)
STARLINK-36909
(67946) | 2026-09-04T 04:56:48+0000 |
1.631 km
极远距离 | 1.180233E-6 低风险 | 0.36 | |
| CDM_260902-192106-395806-642821 |
STARLINK-34144
(63958)
STARLINK-35610
(66428) | 2026-09-02T 19:21:35+0000 |
2.616 km
极远距离 | 1.122749E-6 低风险 | 0.36 | |
| CDM_260903-031206-395806-642821 |
STARLINK-34144
(63958)
STARLINK-35610
(66428) | 2026-09-03T 03:12:22+0000 |
2.690 km
极远距离 | 1.076834E-6 低风险 | 0.36 | |
| CDM_260903-201806-395806-794621 |
STARLINK-34144
(63958)
STARLINK-36909
(67946) | 2026-09-03T 20:18:57+0000 |
1.829 km
极远距离 | 8.805723E-7 极低风险 | 0.34 |